Regional Weather Roundup
Issued by NWS

Home | Current Version | Previous Version | Text Only | Print | Product List | Glossary Off
Versions: 1 2 3 4 5 6 7 8 9 10 11 12 13 14 15 16 17 18 19 20 21 22 23 24 25 26 27 28 29 30 31 32 33 34 35 36 37 38 39 40 41 42 43 44 45 46 47 48 49 50

000
ASUS43 KIND 262159
RWRIN

WEATHER ROUNDUP FOR INDIANA
NATIONAL WEATHER SERVICE INDIANAPOLIS IN
500 PM EST THU FEB 26 2015

NOTE: "FAIR" INDICATES FEW OR NO CLOUDS BELOW 12,000 FEET WITH NO
SIGNIFICANT WEATHER AND/OR OBSTRUCTIONS TO VISIBILITY.

* - STATION DOES NOT REPORT WEATHER SUCH AS PRECIPITATION OR FOG.

+ - STATION NOT QUALITY CONTROLLED BY THE NATIONAL WEATHER SERVICE.
    USE DATA WITH CAUTION...ESPECIALLY DEWPOINT AND RELATIVE
    HUMIDITY OBSERVATIONS.

INZ001>003-010>013-019-020-262300-
NORTHWEST INDIANA

CITY           SKY/WX    TMP DP  RH WIND       PRES   REMARKS
GARY /AIRPORT/ SNOW      18  12  79 N20       30.28R VSB 1/4 WCI   1
MONTICELLO +   CLOUDY    16   5  62 N15       30.24R WCI   1
VALPARAISO     LGT SNOW  15  10  80 N9        30.24S WCI   3

$$

LMZ046-743>745-262300-
SOUTHERN LAKE MICHIGAN

STATION/POSITION TIME  TEMP WIND        PRES
                       AIR  DIR/SP/G
                 (UTC) (F)  (DEG/KT/KT) (MB)
MICHIGAN CITY    2100   15  360/ 12/ 18   N/A

$$

INZ004-005-014>016-021>024-262300-
NORTH CENTRAL INDIANA

CITY           SKY/WX    TMP DP  RH WIND       PRES   REMARKS
ELKHART        MOSUNNY   16  -6  38 NW9       30.23R WCI   4
GOSHEN         CLOUDY    16   3  56 N10       30.21R WCI   4
PERU/GRISSOM   LGT SNOW  18  10  73 N13       30.20R FOG     WCI   4
SOUTH BEND     PTSUNNY   14   0  53 N18       30.24R WCI  -3

$$

INZ006>009-017-018-025>027-262300-
NORTHEAST INDIANA

CITY           SKY/WX    TMP DP  RH WIND       PRES   REMARKS
ANGOLA *+      CLOUDY    14   3  62 NW6       30.18R WCI   5
FORT WAYNE     CLOUDY    17   5  59 N12       30.20R WCI   4

$$

INZ028-029-035-036-043>045-051>053-262300-
WEST CENTRAL INDIANA

CITY           SKY/WX    TMP DP  RH WIND       PRES   REMARKS
CRAWFORDSVL +  CLOUDY    18   6  60 N9        30.22R WCI   6
GREENCASTLE +  CLOUDY    21   9  58 N10       30.21R WCI  10
LAFAYETTE      CLOUDY    17   8  67 N15       30.25R WCI   2
TERRE HAUTE    LGT SNOW  22  14  71 N13       30.23R WCI  10

$$

INZ030>032-037>040-046>048-054>057-064-065-262300-
CENTRAL INDIANA

CITY           SKY/WX    TMP DP  RH WIND       PRES   REMARKS
COLUMBUS       CLOUDY    18   9  68 N15       30.20R WCI   3
GREENWOOD *+   PTSUNNY   19   5  53 N15       30.20R WCI   5
INDIANAPOLIS   CLOUDY    19   8  62 NW16      30.20R WCI   4
-EAGLE CREEK   CLOUDY    19   7  59 N13       30.20R WCI   6
KOKOMO *+      PTSUNNY   19  10  68 N10       30.21R WCI   8
MT COMFORT *+  PTSUNNY   18   1  49 N14       30.20R WCI   4
SHELBYVILLE    CLOUDY    19   9  65 N14       30.19R WCI   6

$$

INZ033-034-041-042-049-050-058-059-262300-
EAST CENTRAL INDIANA

CITY           SKY/WX    TMP DP  RH WIND       PRES   REMARKS
MUNCIE         CLOUDY    16   6  65 N10       30.19R WCI   4

$$

INZ060-061-067>069-081>083-085>088-262300-
SOUTHWEST INDIANA

CITY           SKY/WX    TMP DP  RH WIND       PRES   REMARKS
EVANSVILLE     LGT SNOW  27  18  69 N9        30.23R WCI  18
HUNTINGBURG *+ SUNNY     27  14  59 NW17      30.21R WCI  14

$$

INZ062-063-066-070>080-084-089>092-262300-
SOUTH CENTRAL AND SOUTHEAST INDIANA

CITY           SKY/WX    TMP DP  RH WIND       PRES   REMARKS
BLOOMINGTON    CLOUDY    20  10  65 N15       30.19R WCI   6
SEYMOUR +      CLOUDY    23  10  58 N15       30.19R WCI  10

$$




USA.gov is the U.S. government's official web portal to all federal, state and local government web resources and services.